Regional Weather Roundup
Issued by NWS

Home | Current Version | Previous Version | Text Only | Print | Product List | Glossary On
Versions: 1 2 3 4 5 6 7 8 9 10 11 12 13 14 15 16 17 18 19 20 21 22 23 24 25 26 27 28 29 30 31 32 33 34 35 36 37 38 39 40 41 42 43 44 45 46 47 48 49 50
000
ASUS44 KLIX 261011
RWRLA
LOUISIANA WEATHER ROUNDUP
NATIONAL WEATHER SERVICE NEW ORLEANS LA
500 AM CDT TUE JUL 26 2016

NOTE: "FAIR" INDICATES FEW OR NO CLOUDS BELOW 12,000 FEET WITH NO
      SIGNIFICANT WEATHER AND/OR OBSTRUCTIONS TO VISIBILITY.
      SKY/WX - SKY CONDITION AND SIGNIFICANT WEATHER.
      TMP - AIR TEMPERATURE.    DP   - DEWPOINT TEMPERATURE.
      RH  - RELATIVE HUMIDITY.  PRES - PRESSURE.
      HX  - HEAT INDEX.         WCI  - WIND CHILL INDEX.

*  THESE STATIONS ARE NOT NWS OR FAA STATIONS AND ARE NOT UNDER
   NWS QUALITY CONTROL.

LAZ040-048-061>063-065-066-069-261100-
SOUTHEAST LOUISIANA

CITY           SKY/WX    TMP DP  RH WIND       PRES   REMARKS
N.O. AUDUBON     N/A     79  78  98 MISG        N/A
N.O. INTL ARPT PTCLDY    80  76  87 CALM      29.90S
N.O. LAKEFRONT CLEAR     82  77  84 CALM      29.91R
N.O. DOWNTOWN* FAIR      81  77  88 CALM      29.91S
RESERVE*       PTSUNNY   78  76  94 CALM      29.92R
SLIDELL        LGT RAIN  76  75  97 CALM      29.91R
BATON ROUGE    PTCLDY    75  72  90 CALM      29.93R
BOOTHVILLE     PTCLDY    80  77  90 SE3       29.90S
BELLE CHASSE   CLEAR     76  75  97 NW3       29.90S
BOGALUSA*      FAIR      75  72  89 CALM      29.95R
GALLIANO*      MOSUNNY   68  68 100 CALM      29.90S FOG
NEW ROADS*     FAIR      74  73  98 CALM      29.94R
GONZALES*      FOG       75  75 100 CALM      29.91S VSB 1/2
HAMMOND*       CLEAR     73  70  88 CALM      29.93R
HOUMA*         PTCLDY    75  75  99 CALM      29.91S FOG
PORT FOURCHON* PTSUNNY   81  73  78 CALM      29.91R

$$

LAZ041-044-053-054-261100-
SOUTHWEST LOUISIANA

CITY           SKY/WX    TMP DP  RH WIND       PRES   REMARKS
LAKE CHARLES   FOG       74  73  97 NE3       29.93S VSB 1/2
LAFAYETTE        N/A     76  74  93 CALM      29.92S
PATTERSON      FOG       76  76 100 CALM      29.93R VSB 1/2
SALT POINT       N/A     77  76  96 CALM        N/A
NEW IBERIA     FOG       75  74  96 NW5       29.93R VSB 1/4
CHENAULT AIRPK CLOUDY    73  73  99 CALM      29.94R VSB 3/4

$$

LAZ027-028-261100-
CENTRAL LOUISIANA

CITY           SKY/WX    TMP DP  RH WIND       PRES   REMARKS
FORT POLK      CLOUDY    73  72  94 N2        29.94S
ALEXANDRIA INT FOG       73  73 100 CALM      29.93S VSB 3/4
ALEXANDRIA     FOG       73  73 100 CALM      29.94F VSB 1/2

$$

LAZ001-002-261100-
NORTHWEST LOUISIANA

CITY           SKY/WX    TMP DP  RH WIND       PRES   REMARKS
SHREVEPORT     CLEAR     77  74  90 CALM      29.94S
BARKSDALE AFB  CLEAR     74  74 100 CALM      29.94S
DTN SHREVEPORT CLEAR     76  73  91 CALM      29.95R

$$

LAZ014-016-261100-
NORTHEAST LOUISIANA

CITY           SKY/WX    TMP DP  RH WIND       PRES   REMARKS
MONROE         CLEAR     73  73 100 E3        29.97R
TALLULAH       CLEAR     75  73  93 NE3       29.96R

$$




USA.gov is the U.S. government's official web portal to all federal, state and local government web resources and services.